Regional Weather Roundup
Issued by NWS Upton, NY

Current Version | Previous Version | Graphics & Text | Print | Product List | Glossary Off
Versions: 1 2 3 4 5 6 7 8 9 10 11 12 13 14 15 16 17 18 19 20 21 22 23 24 25 26 27 28 29 30 31 32 33 34 35 36 37 38 39 40 41 42 43 44 45 46 47 48 49 50

000
ASUS41 KOKX 070018
RWROKX

REGIONAL WEATHER ROUNDUP
NATIONAL WEATHER SERVICE NEW YORK NY
800 PM EDT MON JUL 06 2015

NOTE: "FAIR" INDICATES FEW OR NO CLOUDS BELOW 12,000 FEET WITH NO
SIGNIFICANT WEATHER AND/OR OBSTRUCTIONS TO VISIBILITY.

NYZ071-072-176-178-NJZ106-104-070100-
NEW YORK CITY METRO AREA


CITY           SKY/WX    TMP DP  RH WIND       PRES   REMARKS
CENTRAL PARK   MOCLDY    76  62  62 S8        30.13F
LAGUARDIA APRT MOCLDY    77  63  61 S10       30.10F
KENNEDY INTL   MOCLDY    76  64  66 SE12      30.12F
NEWARK/LIBERTY MOCLDY    76  64  66 SE12      30.10F
BRNX BOT. GARD   N/A     75  63  64 SE12      30.11F
TETERBORO      MOCLDY    78  65  63 S9        30.09F
$$

NYZ177-179-078>081-070100-
LONG ISLAND NEW YORK

CITY           SKY/WX    TMP DP  RH WIND       PRES   REMARKS
FARMINGDALE    MOCLDY    75  65  70 S10       30.12F
ISLIP          MOCLDY    74  64  71 SE10      30.11F
SHIRLEY        PTCLDY    73  66  78 SE9       30.14F
WESTHAMPTON    PTCLDY    73  68  84 S7        30.14F
MONTAUK POINT    N/A     72  66  81 VRB3      30.15F
$$

NYZ052-065-067-070100-
HUDSON VALLEY

CITY           SKY/WX    TMP DP  RH WIND       PRES   REMARKS
WHITE PLAINS   MOCLDY    75  65  70 S7        30.12S
NEWBURGH       MOCLDY    81  70  69 VRB6      30.12S HAZE
MONTGOMERY     MOCLDY    77  66  68 SE6       30.10S
POUGHKEEPSIE   PTCLDY    78  65  63 SE5       30.09F
ALBANY         PTCLDY    81  65  58 S8        30.08S
$$

NJZ001-105-106-008-010-013-015-019>022-104-070100-
NEW JERSEY

CITY           SKY/WX    TMP DP  RH WIND       PRES   REMARKS
NEWARK/LIBERTY MOCLDY    76  64  66 SE12      30.10F
TETERBORO      MOCLDY    78  65  63 S9        30.09F
CALDWELL       MOCLDY    76  65  68 VRB7      30.10F
MORRISTOWN     MOCLDY    77  72  83 CALM      30.11F
SOMERVILLE     MOCLDY    74  70  87 CALM      30.08F
SUSSEX         MOCLDY    77  66  68 S6        30.10S
ANDOVER          N/A     76  68  76 VRB3      30.10F
TRENTON        PTCLDY    77  71  82 SE9       30.07F
MILLVILLE      PTCLDY    78  73  84 SE8       30.07S
ATLANTIC CITY  NOT AVBL
WRIGHTSTOWN    PTCLDY    77  73  87 SE8       30.07R
TOMS RIVER     CLOUDY    75  70  83 SE5       30.11S
BELMAR         CLOUDY    73  64  73 SE12      30.11F
$$

PAZ047>061-062-071-070100-
EASTERN PENNSYLVANIA

CITY           SKY/WX    TMP DP  RH WIND       PRES   REMARKS
PHILADELPHIA   MOCLDY    82  72  71 SE8       30.06S THUNDER
ALLENTOWN      PTCLDY    78  71  79 E12       30.07S
SCRANTON       MOCLDY    78  65  63 VRB7      30.07F
$$

CTZ002-004>006-009-010-012-RIZ004-006-007-MAZ004-011-015-070100-
SOUTHERN NEW ENGLAND
 IN CT

CITY           SKY/WX    TMP DP  RH WIND       PRES   REMARKS
BRADLEY INTL   PTCLDY    78  65  63 S10       30.10R
HARTFORD       PTCLDY    77  65  66 SE13      30.10S
DANBURY        PTCLDY    74  63  68 SE3       30.14S
WTRBRY/OXFORD  MOCLDY    73  63  68 S7        30.15F
BRIDGEPORT     PTCLDY    75  65  70 S9        30.12S
MERIDEN        MOCLDY    77  64  64 S6        30.11F
NEW HAVEN      MOCLDY    73  66  78 S9        30.12F
CHESTER        MOCLDY    72  64  78 S5        30.14F
GROTON         MOCLDY    70  64  81 S5        30.12F
WILLIMANTIC    PTCLDY    77  64  64 S8        30.14R

 IN RI

CITY           SKY/WX    TMP DP  RH WIND       PRES   REMARKS
PROVIDENCE     MOCLDY    74  65  73 S8        30.14R
BLOCK ISLAND   PTCLDY    72  64  78 S10       30.14F
WESTERLY       PTCLDY    73  63  70 SW6       30.14F

 IN MA

CITY           SKY/WX    TMP DP  RH WIND       PRES   REMARKS
BOSTON         PTCLDY    78  66  66 S12       30.10F
WORCESTER      CLEAR     77  63  61 S8        30.15S
WESTFIELD      CLEAR     78  67  68 S7        30.10R
PROVINCETOWN   CLEAR     73  14  10 S9        30.14S
NANTUCKET      CLEAR     66  63  90 S5        30.15F
$$

ANZ330-335-338-340-345-350-353-355-070100-
COASTAL MARINE OBSERVATIONS


STATION/POSITION TIME  SKY/WX   TEMP    WIND        PRES    VSBY  WAVE
                                AIR SEA DIR/SP/G                  HT/PER
                 (UTC)          (F)     (DEG/KT/KT) (MB)    (MI)  (FT/S)
NY HARB ENTRANCE 2350            72 71  130/ 12/ 14 1019.2          2/ 6
4S FIRE IS       2303               72                N/A           2/ 6
20S FIRE ISLAND  2350            72 71  130/ 12/ 12 1019.6          2/ 8
GREAT SOUTH BAY  2330            73 77  180/ 14/ 16   N/A
23SW MTP         2350            72 71  180/  8/ 10 1020.1          3/ 8
HUDSON CANYON    NOT AVBL
KINGS POINT      2300            77 69  180/  6/ 10 1019.3
CENTRAL LI SOUND NOT AVBL
EASTERN LI SOUND 2300            68 64  200/  4/  6   N/A
ROBBINS REEF     2300            75     140/ 16/ 17 1018.8
$$


>>>>>>>>>>>>>>>>>>>>>>>>>>>> KEY <<<<<<<<<<<<<<<<<<<<<<<<<<<
>                                                          <
>     SKY/WX - SKY CONDITION/PRESENT WEATHER               <
>     TMP    - TEMPERATURE IN FAHRENHEIT                   <
>     DP     - DEWPOINT IN FAHRENHEIT                      <
>     RH     - RELATIVE HUMIDITY IN PERCENT                <
>     WIND   - DIRECTION AND SPEED IN MPH                  <
>     PRES   - MEAN SEA LEVEL PRESSURE IN INCHES OF HG     <
>     WCI    - WIND CHILL INDEX                            <
>     VSB    - VISIBILITY IN MILES                         <
>     HX     - HEAT INDEX                                  <
>     TC     - TEMPERATURE IN CELSIUS                      <
>     VRB    - VARIABLE WIND DIRECTION                     <
>                                                          <
>>>>>>>>>>>>>>>>>>>>>>>>>>>> KEY <<<<<<<<<<<<<<<<<<<<<<<<<<<




USA.gov is the U.S. government's official web portal to all federal, state and local government web resources and services.